Location: Gorze? G�rny
(49.8500°N, 19.5000°E)
Time: 11:30:54
(UTC+00:00)

Nadezhda 1 Rocket - Pass Details

Date: 13 May 2021
Orbit: 940 x 1006 km, 83.0° (Epoch: 22 June)

Event Time Altitude Azimuth Distance (km) Brightness Sun altitude
Exits shadow 20:23:30 16° 179° (S) 2,319 5.5 -15.3°
Maximum altitude 20:28:37 77° 97° (E) 1,010 4.0 -15.8°
Drops below altitude 10° 20:34:51 10° 12° (NNE) 2,720 7.0 -16.3°
Sets 20:37:20 0° 11° (N) 3,661 7.8 -16.5°
